KINEIS-2B

Last updated on Thu Oct 23 2025 00:02:50 GMT+0000 (Coordinated Universal Time)

1 62934U 25028G 25295.45790757 .00002308 00000+0 37079-3 0 9999 2 62934 98.0009 347.3306 0003743 172.6060 187.5203 14.72545993 37664
UTC large
Height (km)
Speed (km/s)
/
Latitude / Longitude
Inclination (degrees)
Orbital Period (minutes)
Azimuth
Elevation
Range (km)
Doppler Factor

Next 0 passes for location: London (51.5072 / 0.1276)

Sorry there are no passes over London.